Tracking 23731 objects as of 26-Sep-2021
HD Live streaming from Space Station
objects crossing your sky now

NSAT 110

Track NSAT 110 now!
NSAT 110 is classified as:


NORAD ID: 26559
Int'l Code: 2000-060A
Perigee: 36,068.7 km
Apogee: 36,133.7 km
Inclination: 2.4 °
Period: 1,451.8 minutes
Semi major axis: 42472 km
RCS: 12.5892 m2 (large)
Launch date: October 6, 2000
Source: Japan (JPN)
Launch site: FRENCH GUIANA (FRGUI)

24 Ku-band; voice and video communications to Japan.
aabbcc
Your satellite tracking list
Your tracking list is empty




NASA's NSSDC Master Catalog

Two Line Element Set (TLE):
1 26559U 00060A   21269.15329873 -.00000146  00000-0  00000+0 0  9992
2 26559   2.3890  89.4669 0007654  18.0884 132.4756  0.99184937 76702
Source of the keplerian elements: AFSPC